Location: UBC Liquid-Mirror Observatory
(49.2876°N, 122.5728°W)
Time: 18:40:46
(UTC-07:00)

KITSAT 1 - Visible Passes

Search period start: 05 May 2016 00:00
Search period end: 15 May 2016 00:00
Orbit: 1305 x 1326 km, 66.1° (Epoch: 05 May)

Date Brightness Start Highest point End Pass type
(mag) Time Alt. Az. Time Alt. Az. Time Alt. Az.
05 May 11.6 00:58:40 10° NW 01:06:09 37° NNE 01:13:33 10° E visible
05 May 10.2 02:54:16 10° NW 03:02:27 84° SW 03:10:33 10° SSE visible
05 May 11.2 04:50:55 10° WNW 04:56:44 22° WSW 05:02:31 10° SSW visible
05 May 12.2 21:19:45 10° WNW 21:26:39 29° NNW 21:33:35 10° NE visible
05 May 12.2 23:18:27 10° NW 23:24:57 25° N 23:31:26 10° ENE visible
06 May 11.2 01:14:51 10° NW 01:22:39 45° NE 01:30:21 10° ESE visible
06 May 10.2 03:10:26 10° NW 03:18:27 63° WSW 03:26:23 10° SSE visible
06 May 12.3 21:36:48 10° WNW 21:43:24 26° NNW 21:50:01 10° NE visible
06 May 12.0 23:34:59 10° NW 23:41:44 27° NNE 23:48:27 10° ENE visible
07 May 10.8 01:30:59 10° NW 01:39:02 57° NE 01:46:58 10° ESE visible
07 May 10.5 03:26:42 10° NW 03:34:19 46° WSW 03:41:53 10° S visible
07 May 12.3 21:53:47 10° WNW 22:00:12 24° N 22:06:38 10° NE visible
07 May 11.8 23:51:22 10° NW 23:58:27 31° NNE 00:05:29 10° E visible
08 May 10.4 01:47:06 10° NW 01:55:16 74° NE 02:03:22 10° SE visible
08 May 10.9 03:43:07 10° NW 03:50:05 33° WSW 03:56:04 13° SSW visible
08 May 12.3 22:10:40 10° NW 22:17:02 24° N 22:23:24 10° NE visible
09 May 11.5 00:07:38 10° NW 00:15:04 36° NNE 00:22:27 10° E visible
09 May 10.2 02:03:13 10° NW 02:11:24 86° SW 02:18:18 16° SSE visible
09 May 11.3 03:59:48 10° NW 04:05:43 23° WSW 04:10:09 14° SW visible
09 May 12.2 22:27:23 10° NW 22:33:52 25° N 22:40:20 10° ENE visible
10 May 11.2 00:23:48 10° NW 00:31:34 45° NE 00:39:16 10° ESE visible
10 May 10.2 02:19:23 10° NW 02:27:25 65° WSW 02:32:44 23° SSE visible
10 May 11.6 04:17:07 10° WNW 04:21:14 15° W 04:24:37 11° SW visible
10 May 12.0 22:43:55 10° NW 22:50:39 27° NNE 22:57:21 10° ENE visible
11 May 10.8 00:39:56 10° NW 00:47:58 56° NE 00:55:30 12° ESE visible
11 May 10.5 02:35:39 10° NW 02:43:18 47° WSW 02:47:24 27° S visible
11 May 11.8 23:00:19 10° NW 23:07:22 31° NNE 23:14:22 10° E visible
12 May 10.4 00:56:04 10° NW 01:04:14 72° NE 01:10:20 19° SE visible
12 May 10.9 02:52:03 10° NW 02:59:04 34° WSW 03:02:15 25° SSW visible
12 May 12.2 21:19:34 10° NW 21:25:56 24° N 21:32:18 10° NE visible
12 May 11.5 23:16:35 10° NW 23:23:59 36° NNE 23:31:20 10° E visible
13 May 10.2 01:12:11 10° NW 01:20:22 88° WSW 01:25:17 27° SSE visible
13 May 11.3 03:08:43 10° NW 03:14:43 23° WSW 03:17:13 20° SW visible
13 May 12.1 21:36:18 10° NW 21:42:46 25° N 21:49:13 10° ENE visible
13 May 11.1 23:32:46 10° NW 23:40:31 44° NE 23:48:10 10° ESE visible
14 May 10.2 01:28:21 10° NW 01:36:23 66° WSW 01:40:21 33° S visible
14 May 11.6 03:25:56 10° WNW 03:30:15 16° W 03:32:17 14° WSW visible
14 May 11.9 21:52:52 10° NW 21:59:34 27° NNE 22:06:14 10° ENE visible
